Regional Weather Roundup
Issued by NWS

Home | Current Version | Previous Version | Graphics & Text | Print | Product List | Glossary On
Versions: 1 2 3 4 5 6 7 8 9 10 11 12 13 14 15 16 17 18 19 20 21 22 23 24 25 26 27 28 29 30 31 32 33 34 35 36 37 38 39 40 41 42 43 44 45 46 47 48 49 50
000
ASUS43 KLMK 230010
RWRKY
KENTUCKY REGIONAL WEATHER ROUNDUP
NATIONAL WEATHER SERVICE LOUISVILLE KY
800 PM EDT FRI JUL 22 2016

NOTE "FAIR" INDICATES FEW OR NO CLOUDS BELOW 12,000 FEET
WITH NO SIGNIFICANT WEATHER AND/OR OBSTRUCTIONS TO VISIBILITY.

KYZ001>023-026-027-061>063-070>075-230100-
WESTERN AND SOUTH CENTRAL KENTUCKY

CITY           SKY/WX    TMP DP  RH WIND       PRES   REMARKS
PADUCAH        PTSUNNY   82  76  81 CALM      29.98S
HENDERSON      CLOUDY    82  73  74 CALM      29.97F
OWENSBORO      PTSUNNY   85  75  71 N5        29.99F HX  93
HOPKINSVILLE   CLOUDY    81  72  73 SW7       29.99F
BOWLING GREEN  MOSUNNY   80  73  79 E3        30.00F
GLASGOW        CLOUDY    76  71  85 CALM      30.01S
$$

KYZ024-025-028>034-038-045-046-053-230100-
NORTH CENTRAL KENTUCKY

CITY           SKY/WX    TMP DP  RH WIND       PRES   REMARKS
LOUISVILLE/SDF PTSUNNY   89  72  56 NE6       29.98S HX  96
LOUISVILLE/LOU MOSUNNY   88  72  58 N3        29.99F HX  94
FORT KNOX      TSTM      73  68  83 W15G28    30.01R VSB 1
$$

KYZ035>037-039>044-047>052-055>060-089>105-230100-
NORTHEAST KENTUCKY

CITY           SKY/WX    TMP DP  RH WIND       PRES   REMARKS
LEXINGTON      CLOUDY    81  69  67 SE3       30.03F
COVINGTON      MOCLDY    82  73  74 S10       30.01S
FRANKFORT      CLEAR     82  70  66 E7        30.01F
$$

KYZ054-064>069-076>088-106>120-230100-
SOUTHEAST KENTUCKY

CITY           SKY/WX    TMP DP  RH WIND       PRES   REMARKS
JACKSON        LGT RAIN  73  68  84 CALM      30.05F
LONDON         CLOUDY    84  70  62 NE3       30.04R
SOMERSET       HVY RAIN  70  64  83 S5        30.04F
MIDDLESBORO    CLOUDY    84  75  74 CALM      30.04R HX  93
MONTICELLO     CLOUDY   N/A N/A N/A VRB7      30.04S
$$





USA.gov is the U.S. government's official web portal to all federal, state and local government web resources and services.